Location: Bernadets
(43.3537°N, 0.3167°E)
Time: 11:45:59
(UTC+00:00)

Cosmos 1758 Rocket - Pass Details

Date: 24 October 2021
Orbit: 603 x 635 km, 82.5° (Epoch: 07 December)

Event Time Altitude Azimuth Distance (km) Brightness Sun altitude
Rises 18:15:01 0° 360° (N) 2,867 7.0 -14.0°
Reaches altitude 10° 18:17:24 10° 9° (N) 1,960 6.0 -14.5°
Maximum altitude 18:21:22 35° 76° (ENE) 988 4.1 -15.2°
Enters shadow 18:24:14 17° 134° (SE) 1,566 5.2 -15.7°
